SAS1595 EKCH-EBBR

Flight info

Callsign SAS1595
Flight time N/A
Altitude 38000
Route LANGO M611 ALASA DCT EEL DCT SUSET Z310 WOODY
Aircraft A20N/M-SDE3FGIJ1RWXY/ALB1

Departure

Time 2026-04-23 15:11
Airport Copenhagen Kastrup Airport (EKCH)

Arrival

Time N/A
Airport Brussels Airport (EBBR)
Time Latitude Longitude Altitude Speed Heading
2026-04-23 14:33 55.62645 12.64553 21 ft 0 kts 282°
2026-04-23 14:59 55.62644 12.64567 21 ft 2 kts 271°
2026-04-23 14:59 55.62642 12.64593 21 ft 2 kts 285°
2026-04-23 15:00 55.62639 12.64618 21 ft 2 kts 281°
2026-04-23 15:00 55.62637 12.64635 21 ft 2 kts 283°
2026-04-23 15:00 55.62639 12.64659 21 ft 2 kts 229°
2026-04-23 15:00 55.62648 12.64670 21 ft 0 kts 196°
2026-04-23 15:01 55.62646 12.64669 21 ft 3 kts 199°
2026-04-23 15:01 55.62604 12.64654 21 ft 7 kts 187°
2026-04-23 15:01 55.62559 12.64652 21 ft 4 kts 180°
2026-04-23 15:01 55.62545 12.64652 21 ft 0 kts 180°
2026-04-23 15:02 55.62534 12.64652 21 ft 2 kts 179°
2026-04-23 15:02 55.62532 12.64653 21 ft 0 kts 179°
2026-04-23 15:04 55.62527 12.64653 21 ft 2 kts 179°
2026-04-23 15:04 55.62495 12.64656 21 ft 7 kts 172°
2026-04-23 15:05 55.62423 12.64674 21 ft 13 kts 175°
2026-04-23 15:05 55.62335 12.64683 21 ft 10 kts 160°
2026-04-23 15:05 55.62289 12.64790 21 ft 11 kts 120°
2026-04-23 15:05 55.62241 12.64922 21 ft 13 kts 124°
2026-04-23 15:06 55.62192 12.65058 20 ft 9 kts 122°
2026-04-23 15:06 55.62133 12.65095 20 ft 9 kts 210°
2026-04-23 15:06 55.62075 12.65027 21 ft 10 kts 213°
2026-04-23 15:06 55.62012 12.64954 21 ft 11 kts 214°
2026-04-23 15:07 55.61943 12.64875 21 ft 12 kts 213°
2026-04-23 15:07 55.61870 12.64790 21 ft 12 kts 214°
2026-04-23 15:07 55.61792 12.64704 22 ft 13 kts 211°
2026-04-23 15:07 55.61712 12.64613 22 ft 14 kts 214°
2026-04-23 15:08 55.61630 12.64517 22 ft 14 kts 213°
2026-04-23 15:08 55.61541 12.64414 22 ft 16 kts 213°
2026-04-23 15:08 55.61434 12.64292 22 ft 19 kts 213°
2026-04-23 15:09 55.61171 12.63990 23 ft 25 kts 214°
2026-04-23 15:09 55.61017 12.63810 22 ft 27 kts 213°
2026-04-23 15:09 55.60859 12.63631 22 ft 26 kts 213°
2026-04-23 15:09 55.60705 12.63453 22 ft 26 kts 214°
2026-04-23 15:10 55.60609 12.63327 21 ft 25 kts 221°
2026-04-23 15:10 55.60471 12.63123 20 ft 11 kts 203°
2026-04-23 15:10 55.60397 12.63162 20 ft 12 kts 134°
2026-04-23 15:10 55.60336 12.63278 20 ft 9 kts 132°
2026-04-23 15:11 55.60358 12.63375 21 ft 20 kts 40°
2026-04-23 15:11 55.60687 12.63884 23 ft 102 kts 42°
2026-04-23 15:11 55.61388 12.64987 72 ft 160 kts 37°
2026-04-23 15:11 55.62230 12.66279 752 ft 163 kts 36°
2026-04-23 15:12 55.63075 12.67569 1575 ft 163 kts 36°
2026-04-23 15:12 55.63955 12.68934 2152 ft 178 kts 35°
2026-04-23 15:12 55.64873 12.70356 2602 ft 172 kts 35°
2026-04-23 15:12 55.65841 12.71810 3323 ft 185 kts 34°
2026-04-23 15:13 55.66802 12.73239 4192 ft 189 kts 34°
2026-04-23 15:13 55.67851 12.74787 4885 ft 206 kts 35°
2026-04-23 15:13 55.68952 12.76422 5738 ft 213 kts 36°
2026-04-23 15:13 55.69925 12.78428 6616 ft 226 kts 57°
2026-04-23 15:14 55.70393 12.81112 7551 ft 237 kts 80°
2026-04-23 15:14 55.70221 12.84005 8460 ft 249 kts 104°
2026-04-23 15:14 55.69356 12.86671 9301 ft 260 kts 131°
2026-04-23 15:14 55.67874 12.88502 10108 ft 266 kts 158°
2026-04-23 15:15 55.66153 12.89615 10916 ft 270 kts 162°
2026-04-23 15:15 55.64377 12.90639 11748 ft 275 kts 162°
2026-04-23 15:15 55.62541 12.91723 12270 ft 281 kts 161°
2026-04-23 15:15 55.60654 12.92584 12182 ft 278 kts 181°
2026-04-23 15:16 55.58839 12.91808 12140 ft 266 kts 219°
2026-04-23 15:16 55.57591 12.89544 12316 ft 260 kts 241°
2026-04-23 15:16 55.56533 12.86950 13035 ft 266 kts 240°
2026-04-23 15:16 55.55404 12.84416 13898 ft 266 kts 242°
2026-04-23 15:17 55.54689 12.81573 14650 ft 251 kts 274°
2026-04-23 15:17 55.54923 12.78645 15425 ft 240 kts 292°
2026-04-23 15:17 55.55183 12.75716 16124 ft 256 kts 270°
2026-04-23 15:17 55.54544 12.72671 16823 ft 275 kts 246°
2026-04-23 15:18 55.53550 12.69816 17553 ft 279 kts 245°
2026-04-23 15:18 55.52550 12.66896 18267 ft 281 kts 247°
2026-04-23 15:18 55.51603 12.63892 19068 ft 283 kts 249°
2026-04-23 15:18 55.50697 12.60830 19749 ft 285 kts 250°
2026-04-23 15:19 55.49809 12.57693 20473 ft 288 kts 251°
2026-04-23 15:19 55.48938 12.54530 21169 ft 290 kts 251°
2026-04-23 15:19 55.48071 12.51335 21456 ft 295 kts 251°
2026-04-23 15:19 55.47185 12.48066 21263 ft 291 kts 251°
2026-04-23 15:20 55.46618 12.45966 21208 ft 290 kts 251°
2026-04-23 15:20 55.45460 12.41670 21177 ft 290 kts 251°
2026-04-23 15:20 55.44592 12.38442 21266 ft 295 kts 251°
2026-04-23 15:20 55.43711 12.35159 21723 ft 304 kts 251°
2026-04-23 15:21 55.42802 12.31766 22048 ft 319 kts 250°
2026-04-23 15:21 55.41829 12.28140 22355 ft 336 kts 250°
2026-04-23 15:21 55.40808 12.24353 22640 ft 352 kts 249°
2026-04-23 15:21 55.39735 12.20391 22921 ft 367 kts 249°
2026-04-23 15:22 55.38615 12.16266 23191 ft 382 kts 249°
2026-04-23 15:22 55.37445 12.11969 23482 ft 396 kts 249°
2026-04-23 15:22 55.36245 12.07573 23863 ft 405 kts 248°
2026-04-23 15:22 55.35026 12.03113 24089 ft 418 kts 248°
2026-04-23 15:23 55.33744 11.98429 24333 ft 430 kts 248°
2026-04-23 15:23 55.32429 11.93638 24756 ft 437 kts 248°
2026-04-23 15:23 55.31125 11.88896 25280 ft 440 kts 248°
2026-04-23 15:23 55.29788 11.84044 25805 ft 442 kts 248°
2026-04-23 15:24 55.28443 11.79171 26290 ft 446 kts 248°
2026-04-23 15:24 55.27101 11.74315 26739 ft 449 kts 248°
2026-04-23 15:24 55.25712 11.69415 27176 ft 454 kts 246°
2026-04-23 15:24 55.24144 11.64628 27605 ft 459 kts 242°
2026-04-23 15:25 55.22406 11.59868 28027 ft 462 kts 240°
2026-04-23 15:25 55.20668 11.55175 28431 ft 465 kts 240°
2026-04-23 15:25 55.18913 11.50455 28823 ft 468 kts 240°
2026-04-23 15:25 55.17126 11.45649 29197 ft 471 kts 240°